STARLINK-2200

decayed
NORAD ID: 47414 Int'l Des: 2021-006 Owner: SPXS Country: US Constellation: starlink
LEOCIRCULARRETROGRADE

关于 STARLINK-2200

正在加载描述...

高度历史

Altitude vs Time

uPlot chart will show altitude changes over time

两行轨道根数

1 47414U 21006B 22023.86835546 .64159730 26030-5 10993-2 0 9998
2 47414 97.4460 95.3485 0009589 270.8002 199.2153 16.47448285 55971
Epoch: Jan 23, 2022 • Age: 32012 hours

当前状态

Position data unavailable
发射日期 Jan 24, 2021
运行时间 4.6 years
衰减日期 Jan 23, 2022
类型 internet

技术详情

分类 Payload
质量 260.00 kg
干质量 248.00 kg
总质量 260.00 kg
长度 0.20 m
直径 2.80 m
跨度 9.00 m
形状 Box + pan
制造商 SPXS
平台类型 Starlink
阶段状态 Unknown Transfer Status
所有者/国家 SPXS/US

大型星座

Loading constellations...